Regional Weather Roundup
Issued by NWS

Home | Current Version | Previous Version | Graphics & Text | Print | Product List | Glossary Off
Versions: 1 2 3 4 5 6 7 8 9 10 11 12 13 14 15 16 17 18 19 20 21 22 23 24 25 26 27 28 29 30 31 32 33 34 35 36 37 38 39 40 41 42 43 44 45 46 47 48 49 50

000
ASUS43 KTOP 060808
RWRKS

WEATHER ROUNDUP FOR KANSAS
NATIONAL WEATHER SERVICE GOODLAND KS
200 AM CST FRI MAR 06 2015

NOTE:  "FAIR" INDICATES FEW OR NO CLOUDS BELOW 12,000 FEET WITH NO
SIGNIFICANT WEATHER AND/OR OBSTRUCTIONS TO VISIBILITY.

KSZ001>006-013>018-027>032-041>047-060900-
NORTHWEST KANSAS

CITY           SKY/WX    TMP DP  RH WIND       PRES   REMARKS
GOODLAND       CLEAR     28  22  78 W12       30.26S WCI  18
HAYS           CLEAR     27   9  46 W7        30.29S
HILL CITY      CLEAR     25  13  60 W7        30.27F
RUSSELL        CLEAR     25  16  68 S10       30.28S WCI  15
$$

KSZ061>065-074>080-084>089-060900-
SOUTHWEST KANSAS

CITY           SKY/WX    TMP DP  RH WIND       PRES   REMARKS
DODGE CITY     CLEAR     30  15  53 SW10      30.31S WCI  21
ELKHART          N/A     31  20  64 SW10        N/A  WCI  22
GARDEN CITY    CLEAR     28  20  71 SW8       30.29F
GREAT BEND     CLEAR     27  18  69 SW9       30.31F
LIBERAL        CLEAR     27  18  69 SW8       30.32S
PRATT          CLEAR     28  23  80 S10       30.35S WCI  19
$$

KSZ066>073-081>083-090>101-060900-
SOUTHEAST KANSAS

CITY           SKY/WX    TMP DP  RH WIND       PRES   REMARKS
CHANUTE        CLEAR     26  19  74 S9        30.45R
COFFEYVILLE    CLEAR     25  18  74 S9        30.48F
HUTCHINSON     CLEAR     30  20  66 S10       30.35F WCI  21
MEDICINE LODGE   N/A     26  21  81 S6        30.38S
NEWTON         CLEAR     30  18  59 S16       30.37F WCI  19
PARSONS        CLEAR     26  19  74 S6        30.48R
WICHITA INTL   CLEAR     29  19  66 S13       30.39S WCI  19
WICHITA JABRA  CLEAR     32  18  56 S17       30.38F WCI  21
WICHITA MCCONL CLEAR     31  18  58 S14       30.39S WCI  21
WINFIELD       CLEAR     30  18  60 S12       30.44S WCI  20
$$

KSZ007>012-019>026-033>040-048>060-102>105-060900-
NORTHEAST KANSAS

CITY           SKY/WX    TMP DP  RH WIND       PRES   REMARKS
CONCORDIA      CLEAR     29  18  63 SW16      30.26S WCI  17
EMPORIA        CLEAR     24  18  77 S13       30.38S WCI  12
LAWRENCE       CLEAR     23  15  71 S10       30.41F WCI  12
MANHATTAN      CLEAR     31  21  66 SW13      30.33F WCI  21
MARYSVILLE     CLEAR     30  19  64 S12       30.27F WCI  21
OLATHE IND     CLEAR     23  14  68 S13       30.41F WCI  11
OLATHE EXE     CLEAR     23  15  71 S9        30.41F
SALINA         CLEAR     31  21  66 S13       30.32F WCI  21
TOPEKA BILLARD CLEAR     28  17  63 S7        30.38F
TOPEKA FORBES  CLEAR     27  18  69 S10       30.37F WCI  17
$$



USA.gov is the U.S. government's official web portal to all federal, state and local government web resources and services.